This is the latest recevied weather packets stored in our database for station/object N2WH. If no packets are shown the sender has not sent any weather packets the latest 1 day(s).
| Time | Temp. | Humidity | Pressure | Rain* | Wind** | Luminosity | Snow |
|---|---|---|---|---|---|---|---|
| 1778065821 | 17.78° C | 80% | 1010.6 hPa | 0 mm | - | 61 W/m² | - |
| 1778065519 | 17.78° C | 80% | 1010.6 hPa | 0 mm | - | 53 W/m² | - |
| 1778064609 | 17.22° C | 82% | 1010.7 hPa | 0 mm | - | 63 W/m² | - |
| 1778064005 | 16.67° C | 82% | 1010.4 hPa | 0 mm | - | 34 W/m² | - |
| 1778063398 | 16.67° C | 83% | 1010.7 hPa | 0 mm | - | 14 W/m² | - |
| 1778062490 | 16.67° C | 83% | 1010.3 hPa | 0 mm | - | 4 W/m² | - |
| 1778061886 | 16.67° C | 83% | 1010.5 hPa | 0 mm | - | 2 W/m² | - |
| 1778061282 | 16.67° C | 83% | 1010.3 hPa | 0 mm | - | 0 W/m² | - |
| 1778060977 | 16.67° C | 83% | 1010 hPa | 0 mm | - | 0 W/m² | - |
| 1778060676 | 16.67° C | 83% | 1010.3 hPa | 0 mm | - | 0 W/m² | - |
| 1778058558 | 16.67° C | 83% | 1010.4 hPa | 0 mm | - | 0 W/m² | - |
| 1778057952 | 16.67° C | 83% | 1010.6 hPa | 0 mm | - | 0 W/m² | - |
| 1778057345 | 16.67° C | 83% | 1010.6 hPa | 0 mm | - | 0 W/m² | - |
| 1778057042 | 16.67° C | 82% | 1010.5 hPa | 0 mm | - | 0 W/m² | - |
| 1778056738 | 16.67° C | 82% | 1010.7 hPa | 0 mm | - | 0 W/m² | - |
| 1778056436 | 16.67° C | 82% | 1010.7 hPa | 0 mm | - | 0 W/m² | - |
| 1778056133 | 16.67° C | 82% | 1010.5 hPa | 0 mm | - | 0 W/m² | - |
| 1778055224 | 17.22° C | 81% | 1010.5 hPa | 0 mm | - | 0 W/m² | - |
| 1778054618 | 16.67° C | 80% | 1010.6 hPa | 0 mm | - | 0 W/m² | - |
| 1778054013 | 17.22° C | 80% | 1010.7 hPa | 0 mm | - | 0 W/m² | - |
| 1778053710 | 17.22° C | 79% | 1010.6 hPa | 0 mm | - | 0 W/m² | - |
| 1778053104 | 17.22° C | 78% | 1010.7 hPa | 0 mm | - | 0 W/m² | - |
| 1778052802 | 17.22° C | 77% | 1010.6 hPa | 0 mm | - | 0 W/m² | - |
| 1778052196 | 17.78° C | 76% | 1010.7 hPa | 0 mm | - | 0 W/m² | - |
| 1778051592 | 17.78° C | 74% | 1010.4 hPa | 0 mm | - | 0 W/m² | - |
* Rain latest hour (hover to see other rain measurements)
** Current wind speed in m/s (hover to see current wind gust speed)